Dewpoint
-1 -1 -1 -1 -1 -0 -1 0 1 -0 0 -0 -0 -1 -3 -2 -2 -3 -4 -3 0 1 1 3 2 1 1 1 2 2 4 4 3 4 4 3 2 3 3 3 4 5 5 3 1 1 4 -3 -2 -1 -2 -4 -3 -2
-0 -1 -1 -2 -0 1 1 0 -0 -0 -0 -1 -1 -1 -1 -2 -1 -1 -3 -5 -1 1 1 3 4 4 2 0 0 1 1 5 4 5 3 3 2 1 3 4 1 3 3 4 3 3 -0 -2 -2 -4 -5 -3 -2 -2
-1 -0 0 0 -0 -0 -0 -0 -0 -1 -1 -1 -1 -2 -4 -4 -4 -6 -6 -5 0 1 2 2 2 3 4 3 0 0 2 3 4 2 4 4 4 2 4 3 3 2 0 1 1 0 0 1 -1 -2 -3 -3 -2 -2
-2 -2 -1 -1 -1 -1 -1 -1 -1 -1 -1 -2 -3 -4 -4 -6 -5 -3 -3 -1 1 2 2 2 4 4 4 4 3 1 2 1 4 5 4 4 4 2 2 3 3 2 1 2 2 3 3 2 0 -1 -1 -1 -2 -1
-3 -3 -3 -3 -3 -2 -2 -3 -3 -4 -4 -5 -5 -6 -4 -4 -2 -2 -3 1 1 1 2 2 2 3 6 7 5 3 1 3 5 4 2 4 3 3 1 3 2 2 2 3 2 1 0 -1 -1 -1 -1 -0 0 0
-4 -3 -4 -4 -5 -6 -6 -6 -6 -6 -4 -2 -2 -2 -2 -2 -2 -1 -0 0 1 1 2 2 2 3 6 7 7 4 2 4 4 3 3 4 5 4 4 3 1 1 0 -1 -0 0 0 -1 0 1 1 2 2 2
-2 -3 -2 -2 -3 -4 -4 -4 -4 -4 -4 -5 -4 -4 -4 -3 -0 -1 -0 -0 1 1 2 2 1 4 6 7 8 7 6 5 5 5 4 4 5 2 1 3 0 1 1 0 0 1 1 1 1 1 1 1 1 1
-2 -2 -1 -1 -2 -2 -3 -3 -3 -5 -6 -6 -4 -3 -1 0 -0 -2 -3 1 -1 -0 -1 2 3 3 6 6 6 7 6 6 6 5 4 3 4 1 3 2 3 3 2 2 2 1 0 1 1 1 1 0 -0 -1
-4 -4 -5 -3 -1 -1 -1 -2 -2 -4 -5 -2 -0 -0 0 -0 -1 -2 -2 1 -0 -1 2 3 4 4 4 5 5 6 6 3 5 3 3 4 2 4 2 3 3 2 2 2 2 1 1 1 1 1 0 -0 -0 -2
-5 -6 -6 -5 -2 -0 -0 -0 -0 -1 -0 -1 -1 -2 -1 -3 -0 1 2 2 2 1 2 2 4 3 4 3 3 3 3 3 3 3 4 3 3 2 2 3 3 2 2 2 1 0 1 0 1 0 0 -0 -0 -1
-7 -8 -5 -4 -2 -1 -1 -1 -1 -1 -2 -1 -0 0 -0 -2 2 2 1 2 2 2 3 3 4 4 4 3 3 3 3 2 5 4 5 4 4 1 3 2 3 2 2 2 2 1 1 1 1 -0 -1 -2 -2 -3
-7 -8 -5 -2 -3 -3 -3 -1 -0 0 0 0 2 2 2 2 1 1 1 1 1 3 2 2 4 4 4 3 2 2 3 2 5 2 4 5 2 1 2 2 2 2 2 2 2 1 1 0 -0 -1 -2 -3 -3 -3
-6 -5 -5 -3 -1 -1 -1 -0 -0 -0 1 2 3 2 1 -0 2 2 3 3 3 0 2 2 2 3 4 3 1 2 4 4 1 4 4 2 1 1 1 2 1 1 1 1 1 0 -0 -1 -2 -1 -1 -2 -4 -4
-4 -5 -7 -4 -3 -2 -1 -0 -0 0 0 1 1 -0 0 0 -0 -0 -0 0 -0 -0 1 2 1 1 2 2 1 3 2 2 3 3 2 1 0 -0 1 1 1 0 0 0 -0 -1 -1 -0 -1 -2 -3 -4 -7 -11
-4 -6 -8 -6 -3 -2 -1 -0 -0 -0 -0 -1 -0 -0 -0 -1 -1 -1 -1 -0 -0 1 2 2 2 2 1 2 1 2 3 2 1 1 -0 -1 -0 -0 -0 0 -0 -0 0 0 0 -0 -1 -2 -3 -4 -4 -7 -7 -8
1 0 -1 -3 -2 -1 -1 0 -0 -2 -2 -2 -2 -2 -2 -1 -2 -2 -2 -1 0 1 1 1 1 2 1 -0 -2 -1 1 -1 -1 -2 -2 -1 -1 -1 -1 -1 -1 -1 -1 -2 -2 -2 -2 -3 -4 -5 -6 -8 -10 -12
-1 1 1 1 0 -0 0 0 -3 -3 -3 -3 -2 -5 -4 -3 -4 -4 -4 -3 -0 0 0 -0 -2 -2 -3 -2 -4 -4 -3 -3 -4 -3 -2 -2 -2 -2 -2 -2 -2 -2 -2 -3 -3 -3 -4 -5 -5 -5 -7 -12 -14 -15
2 2 2 2 1 0 -1 -2 -3 -3 -2 -3 -4 -5 -6 -6 -6 -6 -5 -3 -1 -1 -3 -3 -5 -6 -6 -6 -6 -6 -7 -7 -4 -4 -3 -3 -3 -3 -2 -3 -3 -3 -4 -4 -4 -4 -5 -5 -6 -8 -11 -12 -12 -12
1 1 1 1 1 0 -1 -2 -4 -3 -4 -5 -6 -5 -7 -7 -8 -8 -7 -5 -6 -6 -6 -7 -7 -7 -7 -8 -8 -8 -9 -8 -6 -6 -5 -4 -4 -4 -4 -4 -4 -4 -5 -5 -5 -6 -6 -7 -8 -9 -9 -10 -10 -10
-4 -3 -1 -0 -1 -1 -2 -2 -3 -3 -2 -5 -8 -9 -9 -9 -9 -10 -10 -10 -10 -9 -9 -9 -9 -10 -10 -10 -10 -10 -9 -6 -6 -6 -7 -6 -6 -5 -5 -5 -6 -6 -6 -7 -7 -8 -8 -9 -9 -9 -10 -10 -10 -10
-7 -5 -5 -4 -4 -4 -3 -2 -2 -3 -3 -4 -4 -8 -10 -11 -11 -11 -11 -12 -11 -9 -10 -10 -10 -11 -11 -10 -10 -10 -9 -7 -8 -9 -10 -9 -9 -8 -8 -8 -8 -8 -8 -9 -9 -10 -10 -10 -11 -11 -11 -11 -12 -12
-14 -12 -12 -9 -8 -7 -6 -5 -4 -4 -6 -6 -6 -4 -5 -7 -9 -11 -13 -12 -11 -11 -11 -11 -12 -12 -11 -11 -10 -10 -10 -9 -9 -9 -9 -8 -9 -9 -10 -10 -9 -10 -11 -11 -11 -11 -12 -12 -12 -12 -12 -13 -13 -14
-21 -18 -13 -11 -9 -8 -7 -7 -7 -6 -8 -7 -7 -7 -7 -8 -10 -14 -11 -12 -12 -12 -11 -12 -11 -11 -11 -11 -10 -10 -10 -10 -10 -10 -11 -11 -11 -11 -11 -11 -11 -12 -12 -13 -13 -13 -13 -14 -16 -19 -23 -24 -25 -25
-15 -10 -8 -8 -8 -9 -8 -7 -7 -6 -7 -9 -9 -9 -8 -8 -12 -12 -12 -13 -13 -12 -12 -12 -11 -11 -12 -12 -12 -12 -12 -12 -12 -12 -12 -12 -13 -14 -14 -16 -18 -19 -21 -24 -25 -27 -27 -28 -28 -28 -28 -28 -28 -26
-9 -7 -9 -11 -8 -10 -13 -13 -12 -10 -11 -12 -11 -8 -11 -11 -14 -14 -13 -13 -13 -13 -13 -13 -12 -13 -13 -14 -14 -13 -13 -13 -14 -15 -16 -18 -20 -21 -23 -24 -25 -25 -26 -26 -26 -26 -26 -26 -26 -25 -24 -23 -23 -22
-8 -6 -7 -8 -10 -10 -12 -11 -11 -11 -13 -11 -9 -9 -13 -16 -16 -14 -12 -13 -14 -14 -13 -13 -13 -14 -14 -15 -16 -16 -17 -17 -17 -18 -18 -19 -21 -23 -24 -25 -25 -25 -25 -25 -26 -26 -25 -25 -24 -24 -23 -22 -21 -21
-8 -10 -8 -8 -7 -8 -10 -9 -10 -12 -11 -9 -13 -16 -17 -17 -16 -13 -13 -14 -14 -14 -14 -14 -15 -16 -15 -14 -15 -15 -16 -17 -19 -19 -20 -21 -24 -24 -25 -25 -25 -25 -25 -25 -24 -24 -23 -22 -22 -22 -21 -21 -22 -22
-7 -9 -12 -9 -9 -9 -14 -15 -15 -13 -13 -10 -15 -18 -19 -19 -16 -15 -14 -14 -14 -14 -14 -15 -15 -17 -20 -18 -16 -16 -21 -22 -21 -23 -23 -24 -24 -25 -25 -26 -25 -25 -25 -26 -25 -24 -23 -22 -22 -22 -21 -22 -22 -22
-8 -9 -10 -12 -10 -10 -10 -12 -12 -11 -12 -13 -18 -18 -16 -17 -16 -15 -15 -14 -14 -15 -15 -15 -15 -16 -17 -19 -20 -21 -22 -23 -24 -24 -25 -26 -27 -28 -29 -28 -28 -28 -27 -27 -26 -25 -25 -24 -23 -22 -22 -22 -22 -22
-9 -9 -10 -10 -14 -13 -12 -12 -14 -15 -15 -16 -16 -17 -17 -17 -16 -16 -15 -15 -15 -16 -16 -17 -17 -18 -20 -20 -19 -19 -20 -22 -24 -27 -28 -29 -29 -28 -28 -27 -26 -26 -25 -25 -25 -24 -24 -24 -24 -24 -24 -24 -23 -23
-8 -10 -10 -9 -10 -11 -13 -14 -15 -16 -17 -17 -17 -18 -17 -18 -17 -17 -17 -17 -17 -17 -17 -17 -17 -17 -17 -17 -19 -21 -23 -25 -29 -29 -28 -27 -26 -26 -25 -25 -25 -24 -24 -24 -23 -23 -23 -23 -24 -24 -24 -24 -24 -24
-9 -10 -11 -14 -11 -12 -12 -10 -13 -13 -14 -16 -16 -17 -17 -17 -18 -18 -18 -18 -18 -17 -18 -17 -18 -18 -20 -23 -26 -28 -28 -27 -27 -26 -25 -25 -25 -24 -24 -24 -24 -24 -24 -23 -23 -24 -24 -24 -24 -24 -24 -24 -24 -24
-11 -11 -10 -10 -11 -11 -11 -11 -12 -13 -13 -14 -15 -15 -16 -17 -18 -18 -18 -18 -19 -22 -22 -22 -23 -25 -29 -29 -28 -27 -26 -26 -26 -26 -25 -25 -25 -24 -24 -24 -24 -24 -24 -24 -24 -24 -25 -24 -24 -24 -24 -24 -24 -24
Wind_Speed
12 14 17 22 31 38 36 42 64 64 51 59 63 58 54 52 55 53 45 35 27 9 25 6 25 21 23 32 13 8 8 10 3 6 4 4 3 6 3 4 7 7 7 3 3 3 7 9 5 9 7 3 27 26
11 18 21 24 27 43 62 62 49 47 56 54 53 54 47 49 51 47 34 42 44 15 9 13 10 19 28 30 28 27 12 9 15 4 1 2 2 0 5 4 0 3 6 7 9 7 4 14 6 15 9 13 25 25
36 40 44 46 45 45 44 45 46 48 49 50 52 50 45 44 43 38 35 39 25 8 14 23 15 16 23 25 29 21 22 10 15 14 6 3 4 4 4 5 4 3 4 4 4 5 6 10 16 12 16 22 26 24
32 33 36 38 40 44 44 44 44 44 45 44 43 40 36 35 32 33 37 27 29 6 2 8 6 10 18 22 27 36 21 27 16 12 4 3 3 6 4 4 4 4 9 7 3 4 2 13 17 16 19 21 24 22
30 30 31 33 33 34 35 35 35 36 36 37 37 36 35 36 29 23 35 21 28 11 2 9 21 9 11 20 25 31 36 30 9 3 2 3 4 4 1 1 2 7 7 6 7 15 12 11 22 22 23 24 23 25
24 25 26 28 29 30 31 32 31 33 34 31 34 34 35 32 29 29 14 16 27 17 1 2 6 6 4 15 23 30 37 32 24 7 4 5 5 4 4 4 4 22 17 18 7 19 16 14 25 24 24 22 22 21
23 25 23 24 26 27 29 31 31 33 32 31 30 31 29 31 37 26 5 6 23 14 2 3 3 2 2 4 15 20 31 21 12 7 4 3 3 6 3 5 5 21 16 13 13 25 13 24 18 25 24 24 22 21
28 26 26 25 25 25 27 28 29 31 32 31 31 29 30 36 33 34 12 9 31 21 2 3 4 5 11 4 2 9 11 10 3 6 3 2 3 1 3 2 7 15 16 18 25 17 17 27 27 27 24 25 24 24
23 24 24 25 25 24 30 31 33 34 35 29 33 39 29 20 18 22 14 20 24 8 8 5 2 2 2 3 2 2 5 2 4 2 1 2 1 5 1 2 11 17 14 22 18 13 22 29 32 30 28 27 28 29
23 23 23 23 26 35 35 32 35 39 40 39 36 12 7 12 9 17 15 12 8 9 5 3 2 1 0 5 4 2 5 2 2 1 5 2 3 1 1 4 14 16 12 24 27 20 27 30 31 30 28 27 26 29
23 22 25 28 30 35 34 37 41 44 41 29 6 5 12 20 13 7 6 8 5 3 8 7 8 2 3 2 3 6 3 1 3 2 4 0 3 2 1 12 13 13 16 19 13 16 22 27 34 33 31 29 29 29
22 21 23 27 31 31 31 36 39 30 18 8 10 20 17 6 3 3 1 2 2 3 2 2 5 9 7 2 2 5 4 1 1 6 3 3 1 1 10 14 17 15 14 8 9 20 21 23 25 27 28 28 26 28
22 21 20 24 26 27 25 29 24 16 19 7 6 5 2 2 3 3 1 1 1 2 2 2 1 3 5 4 2 1 4 3 3 3 2 1 5 9 13 13 14 13 12 16 21 22 24 24 24 25 27 24 26 25
20 20 20 23 21 23 20 26 14 11 8 2 4 5 5 4 4 2 2 1 1 3 3 2 3 2 3 3 2 4 1 2 3 2 3 3 4 7 10 13 16 17 17 21 22 22 22 22 24 24 25 23 21 23
22 22 22 21 23 21 18 24 14 7 2 4 6 4 4 4 3 3 3 3 11 10 5 0 5 5 3 3 2 2 3 4 5 3 3 6 6 9 12 14 17 19 19 18 18 20 24 25 26 24 22 22 18 17
25 23 18 21 23 24 23 20 7 10 6 7 10 4 7 2 9 14 18 12 16 8 4 7 3 3 5 3 5 6 4 4 3 3 12 1 8 10 12 14 15 16 16 18 22 25 24 22 22 23 20 17 15 15
25 22 22 20 23 21 15 14 2 9 9 6 5 20 12 6 8 11 15 19 13 6 3 3 6 4 3 4 5 5 4 4 16 14 6 2 5 9 12 15 16 17 20 21 21 20 20 20 18 18 18 16 15 13
26 26 24 29 33 24 20 9 7 9 9 12 5 16 20 20 17 18 23 23 7 5 5 5 6 7 5 4 3 5 8 19 14 18 13 9 8 12 15 17 17 18 20 19 17 16 16 16 15 16 15 15 13 11
27 24 25 31 21 7 6 11 10 7 15 8 16 16 18 18 28 27 22 19 25 17 9 7 6 4 4 5 7 15 18 13 10 19 22 17 15 15 15 15 15 14 13 14 15 15 15 12 12 12 11 9 8 7
20 18 16 17 11 6 7 7 7 9 7 7 17 25 17 15 21 29 36 30 23 11 10 5 4 8 7 12 13 14 15 10 12 22 24 21 18 14 14 14 15 15 15 15 14 13 12 12 10 8 7 7 5 5
25 28 25 25 21 12 9 6 8 8 9 7 10 13 13 27 34 30 30 26 25 10 8 14 14 13 14 15 17 20 23 22 23 21 19 23 20 20 19 17 15 15 16 16 15 14 11 10 8 4 1 2 3 5
26 28 27 19 11 9 11 13 8 8 6 6 6 6 6 6 9 16 21 20 11 16 11 13 16 17 20 22 22 23 23 23 23 23 21 20 23 23 23 21 18 20 19 17 14 12 10 8 6 5 5 7 9 10
15 16 12 11 9 9 5 9 6 6 4 3 4 4 5 5 6 9 8 10 10 16 12 14 15 18 21 22 23 24 23 23 26 26 24 24 24 22 20 20 18 16 15 14 11 9 8 9 9 10 10 11 12 13
12 10 9 8 10 3 5 7 5 5 5 4 3 3 4 5 7 8 4 5 13 15 15 13 12 15 18 20 24 23 22 19 21 22 21 18 19 20 18 17 15 14 13 10 9 9 9 10 12 13 14 15 15 14
10 13 9 7 8 7 6 5 5 5 4 3 4 3 2 4 3 3 2 3 12 14 14 14 14 16 18 18 17 17 16 14 14 16 18 16 15 13 13 13 13 13 12 10 10 12 13 14 15 16 16 16 16 16
8 12 6 5 4 5 1 3 3 2 2 4 4 3 4 4 5 3 2 4 7 9 10 11 11 12 15 15 14 14 15 13 11 13 15 13 13 13 13 12 12 12 14 15 16 16 16 17 18 18 17 16 16 17
6 5 9 10 5 7 6 8 7 7 4 4 2 4 4 5 2 3 4 4 5 6 7 8 9 9 9 9 11 12 11 9 9 12 11 11 12 12 13 13 14 15 16 17 18 19 20 20 19 19 19 19 19 19
7 9 5 11 11 14 4 4 4 4 2 5 5 5 4 3 2 3 4 6 7 7 7 8 9 10 10 8 8 8 7 9 9 9 10 11 12 14 14 15 15 16 17 19 19 19 19 19 19 20 21 22 22 21
8 6 6 10 8 10 10 5 4 5 6 3 4 2 3 4 5 9 12 5 3 2 3 4 4 7 7 6 6 6 7 7 7 7 10 13 14 15 15 15 16 16 16 16 16 17 18 18 19 20 22 23 22 21
7 8 7 7 5 5 9 6 9 11 11 12 11 17 17 14 12 10 8 6 3 3 4 5 5 4 2 3 4 4 5 7 11 13 15 16 16 16 16 16 16 17 17 18 18 18 17 17 17 17 18 18 18 16
5 6 7 7 6 7 14 17 17 18 20 16 20 20 13 10 10 8 5 4 4 4 4 2 2 3 4 5 6 9 11 13 14 15 15 15 15 15 16 17 17 18 18 19 19 19 19 19 19 19 19 19 18 17
8 6 6 4 4 16 9 5 5 6 4 4 5 6 6 4 3 5 3 3 3 2 2 3 4 5 7 9 10 11 13 15 16 15 15 15 15 16 16 18 18 18 17 17 17 17 18 18 18 18 18 17 17 17
11 16 14 8 6 7 6 5 4 4 4 3 3 3 2 2 3 6 5 3 1 2 3 5 6 7 9 10 11 13 14 15 15 16 16 16 16 17 18 18 17 16 15 16 16 16 16 16 16 17 17 17 17 17
Wind_Direction
106 110 124 148 163 172 183 180 176 175 178 178 181 188 191 186 194 201 206 206 207 197 252 288 203 185 189 193 200 154 158 229 58 182 167 199 150 215 132 169 174 153 146 170 92 68 282 182 124 172 216 216 180 178
96 116 131 138 167 159 157 160 162 166 170 175 181 177 188 194 197 202 207 209 203 239 234 257 235 206 202 208 194 186 192 157 188 161 149 127 125 110 152 204 67 198 182 176 177 209 221 191 217 211 226 182 180 177
94 115 125 133 139 144 147 146 152 163 167 171 176 180 186 192 194 202 205 209 219 273 260 258 267 216 219 205 200 199 218 228 204 206 165 174 198 138 158 233 114 242 155 136 107 214 220 229 225 220 196 187 180 184
89 99 109 119 129 138 144 151 155 159 166 171 177 183 185 185 188 191 199 198 203 192 170 277 229 250 223 224 212 211 207 211 232 200 166 145 194 195 199 165 155 192 137 156 282 278 286 244 221 215 198 188 180 183
95 99 105 113 121 129 136 143 150 156 161 169 175 178 181 181 183 195 188 205 190 198 129 293 301 248 209 211 209 214 220 233 203 167 151 194 146 144 286 306 207 191 167 161 213 194 180 203 200 192 185 178 181 183
101 106 114 120 128 135 141 146 150 153 159 159 162 169 170 171 183 174 200 224 217 212 276 308 288 266 242 224 213 212 216 221 226 217 225 181 172 184 152 195 241 198 200 204 189 184 187 182 181 183 180 174 172 174
109 110 116 124 131 138 145 149 154 158 162 163 159 159 165 171 168 159 191 159 181 145 111 262 286 227 357 191 194 204 206 206 208 177 212 177 169 164 132 199 213 195 202 198 194 168 136 169 175 177 177 167 164 161
116 107 106 113 126 135 146 152 155 158 156 155 157 158 162 161 177 188 246 196 177 193 252 300 278 357 351 356 135 168 156 175 160 160 143 195 123 98 242 239 168 171 170 164 173 193 203 179 169 168 170 164 158 154
119 114 111 108 110 119 138 140 144 147 153 152 152 146 140 154 165 195 220 159 162 154 162 230 189 171 266 356 18 104 145 86 141 117 192 136 243 216 242 198 175 171 176 170 165 166 159 165 164 164 166 164 162 155
126 120 119 119 121 127 130 129 132 144 137 129 130 126 152 175 147 142 143 158 161 214 220 232 180 209 256 65 318 34 42 134 113 221 138 185 246 277 263 207 187 185 182 169 143 135 157 158 163 163 168 167 166 158
137 128 124 124 128 129 130 132 131 135 139 138 134 163 136 148 144 176 186 189 159 161 196 218 181 153 152 138 153 261 165 158 118 198 143 318 270 303 185 152 165 173 171 174 193 185 175 175 169 167 165 166 161 159
143 136 131 136 141 143 142 145 144 147 163 158 117 125 130 154 146 154 145 88 182 200 173 186 169 180 147 139 77 255 107 99 196 160 104 202 137 130 145 156 156 155 167 145 165 166 164 166 167 166 162 160 159 156
149 144 145 153 149 148 147 154 155 163 146 121 116 115 151 342 87 65 2 63 269 335 30 108 166 119 136 98 198 247 94 139 107 35 130 11 58 110 130 130 128 144 150 148 149 151 153 157 163 166 159 159 160 152
169 169 173 159 160 162 159 165 136 159 253 24 47 48 35 28 48 35 310 308 342 260 10 56 83 88 51 75 287 70 47 87 95 57 21 357 99 122 135 143 144 146 153 148 146 148 151 159 155 159 151 154 152 145
173 178 179 172 162 164 176 184 177 27 84 72 42 51 47 354 349 324 14 26 16 29 24 36 64 60 30 85 9 118 65 65 41 42 355 342 149 144 145 147 146 146 144 147 154 156 152 149 148 143 142 151 158 159
140 144 160 157 164 169 182 187 207 18 59 60 43 21 352 16 15 16 10 11 16 6 35 41 64 59 37 32 36 17 48 46 0 321 327 130 149 146 145 149 144 141 145 146 145 144 142 142 142 144 148 153 162 177
156 151 157 155 164 170 182 168 35 45 48 46 31 20 28 30 19 6 5 350 4 31 38 33 46 14 360 46 33 11 26 349 329 349 18 120 135 129 131 128 129 133 140 141 139 140 141 148 151 148 153 157 164 163
134 153 163 163 154 117 81 50 75 65 59 38 55 26 46 40 19 19 20 27 50 65 46 49 37 35 35 41 19 354 326 336 27 56 60 70 104 123 125 126 132 134 131 128 130 132 136 146 151 155 166 166 173 173
130 127 129 132 132 104 71 35 46 78 45 52 39 43 47 39 36 41 44 54 67 76 82 57 51 35 35 9 326 334 343 7 31 71 78 92 102 109 113 117 120 124 127 132 140 143 147 153 156 164 174 181 192 193
126 127 127 130 111 77 82 53 58 71 56 99 65 56 55 35 37 41 45 48 54 60 49 51 35 19 15 12 21 13 23 54 91 76 68 73 84 103 107 118 120 127 129 129 129 133 136 133 137 149 164 183 211 241
126 113 111 113 82 75 84 78 71 96 99 92 109 84 82 50 45 40 40 45 53 39 58 43 46 46 51 56 57 58 60 66 73 82 81 76 78 86 88 89 98 101 103 105 109 109 112 108 111 117 140 286 294 294
103 102 80 68 73 67 63 43 89 98 86 104 62 58 57 42 36 36 41 46 56 40 49 51 53 58 58 56 60 67 72 78 81 85 86 88 82 82 84 87 90 91 90 85 83 81 77 69 50 20 352 335 321 313
87 73 59 47 70 58 40 33 59 37 68 33 40 47 40 55 51 39 66 37 41 38 50 57 67 72 74 74 74 71 70 74 76 75 75 78 81 81 82 80 77 77 75 69 56 43 27 9 350 337 328 319 314 310
73 57 45 51 52 75 64 35 49 58 57 36 60 46 45 66 64 65 63 39 22 40 54 66 75 80 77 71 68 67 67 69 79 82 76 73 74 70 65 63 58 53 48 37 18 2 348 338 332 328 325 321 319 313
65 21 39 19 41 63 46 23 13 50 59 16 68 40 19 65 71 68 80 46 35 46 54 65 71 70 73 73 73 72 69 61 63 74 70 61 59 58 55 49 43 38 31 17 6 358 350 342 336 332 329 326 322 317
70 28 45 29 17 74 89 65 51 72 73 48 42 54 56 69 64 63 69 31 46 50 47 50 55 65 70 69 73 69 65 58 55 65 70 55 45 35 32 24 19 11 5 359 353 346 341 337 333 331 329 327 325 319
56 22 37 35 70 88 73 73 69 68 62 42 360 39 60 67 78 75 95 69 88 68 56 54 53 55 64 69 72 71 68 64 55 56 47 28 20 18 12 5 358 351 347 342 338 336 334 333 332 330 332 333 333 328
70 51 62 18 58 43 92 53 46 43 19 27 68 40 96 137 134 83 106 114 97 83 68 63 63 62 66 73 78 68 53 44 35 26 16 10 4 359 355 349 343 340 338 336 334 333 330 326 323 321 322 321 322 323
51 57 70 30 55 52 38 50 50 33 360 42 96 89 94 85 112 135 152 149 121 44 28 39 56 58 51 55 55 47 38 29 20 351 345 346 345 342 343 343 341 341 340 337 334 332 331 328 323 318 316 315 316 315
36 37 90 48 59 53 22 56 82 79 87 97 100 110 101 98 101 116 128 134 133 93 60 50 53 61 56 46 28 8 357 350 344 343 344 344 346 345 346 346 344 342 342 341 340 340 338 335 333 331 331 333 333 328
66 65 71 65 77 108 115 95 89 89 90 96 118 118 121 120 117 112 122 109 67 38 21 7 35 28 4 349 347 345 344 342 345 348 347 345 344 341 340 341 341 339 338 338 339 339 338 338 337 338 339 338 336 334
42 63 107 93 99 152 136 38 76 86 79 72 87 114 120 130 129 168 142 107 66 356 354 354 357 349 335 333 336 341 344 345 346 345 342 340 339 339 340 339 338 337 338 340 341 340 340 340 341 342 342 342 340 339
74 78 91 91 120 177 209 146 94 95 94 98 115 146 119 127 150 179 178 150 66 18 353 339 335 337 338 340 341 341 342 342 341 340 340 340 338 334 334 335 337 339 341 341 341 341 342 342 342 342 342 342 341 340
Height
1175 1175 1176 1181 1190 1201 1212 1224 1238 1252 1268 1284 1299 1313 1328 1341 1352 1360 1369 1378 1387 1387 1384 1385 1387 1388 1397 1400 1404 1413 1427 1426 1431 1435 1440 1440 1449 1436 1439 1432 1437 1442 1460 1474 1485 1486 1466 1434 1442 1449 1436 1430 1432 1438
1183 1183 1185 1189 1193 1202 1213 1227 1243 1259 1274 1288 1301 1316 1329 1340 1350 1359 1368 1376 1387 1386 1382 1381 1382 1384 1388 1393 1402 1406 1403 1407 1414 1423 1432 1432 1437 1443 1431 1439 1431 1436 1431 1444 1448 1446 1431 1430 1429 1429 1429 1427 1432 1436
1197 1195 1198 1202 1209 1217 1229 1241 1255 1268 1280 1293 1306 1318 1330 1340 1350 1358 1366 1376 1384 1380 1382 1387 1381 1383 1384 1387 1395 1399 1400 1401 1402 1404 1410 1417 1421 1424 1430 1429 1424 1425 1425 1431 1435 1427 1426 1426 1427 1427 1427 1428 1431 1435
1218 1217 1219 1223 1228 1236 1245 1255 1266 1277 1288 1300 1311 1322 1333 1343 1351 1360 1366 1376 1383 1384 1385 1380 1378 1378 1380 1382 1386 1389 1394 1397 1400 1401 1400 1406 1414 1408 1417 1408 1416 1415 1420 1426 1428 1424 1424 1422 1422 1424 1425 1426 1429 1434
1234 1235 1237 1240 1245 1251 1258 1267 1276 1285 1295 1305 1315 1325 1334 1344 1353 1360 1368 1373 1379 1385 1381 1382 1374 1371 1373 1376 1378 1384 1389 1393 1395 1398 1398 1402 1402 1406 1410 1410 1413 1404 1408 1418 1416 1403 1407 1411 1416 1421 1424 1425 1428 1431
1247 1248 1250 1253 1257 1262 1269 1276 1284 1293 1302 1310 1319 1328 1337 1345 1353 1361 1370 1368 1373 1378 1382 1383 1373 1368 1367 1368 1372 1376 1383 1387 1391 1392 1394 1391 1393 1396 1405 1408 1390 1390 1391 1392 1395 1399 1404 1407 1412 1418 1422 1425 1428 1431
1256 1258 1260 1262 1266 1271 1277 1284 1291 1299 1308 1315 1324 1332 1339 1346 1353 1358 1364 1366 1370 1371 1381 1381 1371 1365 1365 1365 1367 1372 1376 1381 1386 1389 1392 1391 1390 1390 1401 1399 1383 1384 1390 1392 1396 1397 1405 1407 1409 1416 1420 1424 1428 1431
1265 1267 1269 1270 1274 1278 1283 1289 1296 1303 1311 1319 1327 1334 1342 1347 1356 1362 1363 1365 1370 1379 1382 1379 1368 1362 1361 1361 1364 1367 1371 1378 1383 1386 1389 1390 1391 1392 1392 1381 1380 1384 1387 1391 1395 1394 1394 1399 1407 1413 1419 1422 1427 1431
1274 1276 1278 1280 1283 1284 1290 1296 1302 1308 1315 1323 1329 1335 1345 1351 1355 1359 1364 1365 1370 1375 1378 1376 1369 1370 1370 1366 1365 1367 1368 1380 1383 1384 1388 1390 1393 1388 1382 1381 1382 1384 1385 1386 1390 1397 1397 1400 1405 1411 1416 1422 1425 1430
1281 1284 1287 1289 1291 1295 1299 1303 1305 1314 1320 1328 1335 1339 1346 1349 1354 1358 1368 1369 1371 1372 1372 1367 1364 1367 1368 1364 1369 1370 1371 1379 1385 1386 1385 1389 1385 1381 1381 1382 1383 1386 1389 1388 1389 1398 1398 1401 1405 1411 1417 1422 1426 1430
1287 1291 1294 1297 1301 1304 1308 1312 1316 1321 1325 1328 1334 1338 1343 1349 1356 1358 1358 1359 1359 1363 1362 1361 1362 1365 1367 1370 1368 1374 1371 1377 1378 1383 1385 1388 1384 1380 1381 1381 1385 1388 1391 1392 1392 1394 1397 1399 1402 1409 1417 1423 1424 1430
1295 1299 1303 1305 1308 1312 1316 1321 1324 1326 1330 1334 1334 1339 1346 1350 1352 1353 1353 1356 1357 1356 1357 1358 1359 1364 1366 1367 1369 1368 1365 1376 1376 1380 1381 1382 1386 1386 1384 1387 1388 1388 1392 1391 1395 1398 1401 1406 1412 1417 1422 1427 1431 1431
1303 1306 1306 1310 1316 1320 1325 1328 1331 1330 1331 1334 1336 1342 1345 1350 1349 1350 1348 1352 1353 1355 1355 1355 1357 1357 1362 1363 1366 1360 1363 1372 1375 1374 1382 1388 1387 1387 1387 1388 1389 1392 1394 1398 1401 1402 1405 1410 1417 1420 1424 1430 1437 1438
1307 1307 1305 1319 1321 1326 1329 1332 1334 1338 1338 1337 1337 1344 1347 1353 1360 1361 1360 1358 1359 1358 1356 1356 1357 1359 1361 1362 1363 1361 1370 1371 1381 1385 1390 1392 1393 1391 1391 1393 1394 1398 1400 1401 1403 1406 1410 1414 1416 1425 1425 1436 1442 1442
1307 1308 1311 1319 1326 1331 1334 1335 1337 1337 1338 1341 1345 1356 1360 1363 1363 1362 1359 1358 1355 1353 1354 1355 1357 1360 1365 1367 1368 1369 1370 1381 1388 1396 1401 1400 1397 1397 1398 1398 1400 1403 1403 1405 1407 1410 1415 1419 1425 1430 1435 1441 1443 1445
1312 1315 1318 1323 1327 1332 1336 1339 1340 1340 1343 1350 1361 1365 1365 1363 1362 1359 1359 1359 1359 1359 1359 1360 1365 1368 1373 1378 1380 1389 1387 1403 1408 1407 1404 1402 1402 1402 1402 1404 1405 1405 1407 1411 1414 1417 1421 1426 1430 1434 1439 1444 1446 1449
1316 1318 1323 1327 1330 1335 1338 1343 1345 1348 1356 1367 1378 1376 1373 1374 1375 1373 1369 1367 1364 1363 1367 1370 1380 1388 1385 1391 1406 1411 1415 1416 1412 1408 1405 1405 1406 1406 1406 1407 1410 1411 1415 1418 1420 1423 1426 1431 1435 1439 1442 1446 1449 1451
1318 1322 1325 1329 1333 1339 1343 1347 1352 1365 1378 1383 1384 1386 1384 1384 1382 1378 1375 1371 1369 1372 1379 1390 1396 1406 1417 1422 1427 1429 1426 1419 1416 1412 1411 1410 1412 1412 1413 1415 1418 1420 1421 1423 1426 1429 1431 1434 1438 1442 1445 1448 1451 1453
1324 1329 1331 1333 1336 1338 1348 1358 1362 1380 1391 1392 1393 1392 1390 1391 1391 1389 1384 1381 1379 1380 1387 1403 1416 1428 1434 1437 1436 1432 1427 1423 1422 1419 1417 1418 1418 1419 1420 1422 1423 1424 1425 1426 1429 1431 1435 1438 1442 1445 1448 1451 1453 1454
1329 1332 1335 1336 1340 1345 1357 1371 1375 1385 1394 1403 1402 1401 1400 1403 1401 1396 1391 1389 1386 1391 1410 1429 1441 1445 1443 1441 1437 1434 1428 1425 1425 1422 1422 1422 1423 1424 1425 1426 1427 1429 1430 1432 1434 1438 1441 1444 1446 1448 1450 1452 1453 1453
1336 1337 1340 1342 1347 1352 1366 1377 1385 1394 1401 1405 1409 1410 1414 1413 1408 1406 1405 1407 1403 1423 1438 1447 1448 1447 1445 1442 1438 1435 1431 1428 1427 1428 1431 1431 1432 1431 1432 1433 1434 1435 1437 1439 1441 1444 1446 1447 1449 1451 1452 1452 1452 1452
1336 1338 1339 1341 1350 1364 1376 1385 1390 1396 1402 1408 1410 1412 1416 1420 1421 1423 1428 1426 1441 1451 1452 1454 1452 1450 1447 1445 1443 1440 1439 1437 1436 1436 1437 1438 1437 1437 1438 1440 1441 1443 1444 1446 1448 1449 1450 1451 1451 1452 1452 1452 1452 1451
1339 1339 1345 1354 1363 1378 1394 1393 1395 1401 1407 1412 1414 1417 1423 1427 1432 1434 1444 1455 1460 1460 1460 1458 1456 1455 1453 1452 1450 1447 1446 1445 1444 1444 1445 1445 1445 1447 1447 1448 1449 1450 1450 1451 1452 1453 1453 1453 1452 1452 1451 1450 1449 1448
1341 1348 1360 1371 1381 1394 1399 1402 1406 1409 1414 1418 1423 1429 1431 1434 1439 1448 1462 1467 1468 1465 1462 1461 1460 1459 1458 1455 1454 1454 1454 1454 1453 1453 1454 1454 1453 1453 1454 1454 1454 1454 1454 1455 1455 1454 1454 1453 1452 1451 1450 1448 1447 1445
1351 1378 1381 1392 1396 1400 1409 1414 1415 1417 1428 1428 1430 1432 1437 1438 1450 1462 1469 1473 1472 1469 1467 1466 1464 1463 1461 1462 1462 1461 1461 1460 1459 1458 1458 1459 1459 1459 1459 1458 1458 1458 1458 1457 1456 1455 1454 1452 1451 1449 1448 1446 1444 1442
1382 1397 1400 1403 1407 1410 1417 1424 1426 1429 1430 1433 1435 1437 1439 1447 1462 1470 1471 1473 1472 1471 1470 1469 1468 1467 1466 1465 1465 1465 1464 1465 1465 1462 1463 1463 1463 1462 1462 1461 1461 1460 1458 1457 1456 1454 1453 1451 1449 1447 1446 1444 1441 1439
1403 1410 1411 1412 1412 1414 1421 1425 1427 1430 1437 1439 1443 1445 1450 1467 1473 1472 1473 1473 1473 1473 1472 1471 1470 1469 1469 1469 1469 1468 1469 1469 1468 1467 1467 1466 1466 1465 1464 1463 1461 1460 1458 1456 1454 1452 1450 1448 1446 1444 1442 1440 1438 1435
1411 1416 1420 1420 1420 1422 1428 1434 1439 1444 1444 1444 1446 1459 1467 1472 1473 1474 1475 1475 1474 1475 1474 1474 1473 1473 1472 1472 1472 1472 1471 1471 1470 1470 1469 1468 1467 1465 1464 1462 1461 1459 1457 1454 1452 1450 1448 1445 1443 1441 1439 1436 1435 1432
1418 1421 1422 1427 1428 1434 1441 1444 1447 1449 1450 1448 1454 1463 1468 1470 1472 1474 1475 1476 1476 1476 1476 1476 1476 1475 1475 1475 1474 1473 1473 1472 1472 1472 1470 1468 1467 1465 1463 1461 1459 1457 1455 1453 1450 1448 1445 1442 1440 1437 1435 1432 1430 1427
1425 1425 1428 1435 1440 1449 1452 1451 1452 1452 1451 1451 1455 1464 1468 1472 1474 1475 1476 1477 1477 1477 1477 1477 1476 1476 1476 1476 1475 1475 1474 1473 1472 1470 1467 1465 1464 1462 1460 1458 1456 1454 1451 1449 1446 1444 1442 1440 1437 1434 1431 1429 1426 1423
1429 1431 1436 1442 1450 1455 1456 1457 1457 1457 1457 1460 1462 1464 1468 1473 1476 1476 1477 1477 1477 1477 1477 1477 1477 1477 1476 1475 1474 1473 1472 1471 1469 1467 1465 1463 1461 1459 1458 1455 1453 1451 1448 1445 1443 1440 1438 1435 1433 1430 1427 1425 1423 1420
1433 1436 1441 1449 1456 1459 1458 1460 1461 1464 1466 1468 1469 1470 1472 1473 1474 1476 1476 1477 1477 1477 1477 1477 1476 1475 1475 1474 1473 1472 1470 1468 1466 1465 1463 1461 1459 1456 1454 1452 1450 1448 1445 1443 1440 1437 1435 1432 1430 1427 1425 1422 1420 1417
1442 1443 1445 1449 1456 1459 1460 1461 1463 1466 1468 1469 1471 1472 1472 1473 1474 1476 1476 1476 1477 1477 1476 1476 1475 1474 1473 1472 1470 1469 1467 1466 1464 1462 1460 1458 1456 1453 1451 1449 1447 1444 1442 1440 1438 1435 1433 1430 1428 1425 1423 1420 1418 1415